Theta_e
296 295 295 296 296 296 297 297 297 296 296 296 297 297 297 298 299 299 298 300 301 303 304 304 304 305 306 306 308 310 311 311 318 321 323 326 325 324 324 324 324 333 332 331 331 332 334 331 329 330 330 334 332 329
295 296 296 296 297 296 296 295 295 296 296 296 295 297 297 297 298 298 299 299 301 302 303 304 304 305 305 305 306 307 311 309 314 309 313 315 324 328 327 324 324 335 331 330 330 330 329 331 331 328 331 335 334 334
295 296 295 295 296 295 296 296 295 295 295 295 295 296 296 297 297 297 298 300 300 301 302 303 304 305 305 304 305 305 308 309 308 307 307 314 326 326 330 329 332 330 330 329 334 335 332 330 333 330 329 333 331 330
295 295 295 295 296 296 296 296 296 297 296 295 294 295 296 297 297 297 298 299 300 301 303 303 304 305 308 307 305 305 303 309 308 309 308 313 325 325 330 326 328 330 329 329 333 332 332 331 329 328 334 333 332 332
295 294 294 295 295 296 296 296 296 295 296 295 294 295 297 297 298 298 298 299 300 301 303 303 302 303 306 308 307 305 305 305 307 311 312 313 322 325 325 325 328 326 327 332 334 331 332 331 327 328 328 331 331 331
294 294 294 296 294 295 295 295 295 295 295 294 294 296 297 298 298 298 300 300 300 302 302 303 303 304 306 308 308 307 307 309 309 312 314 313 321 322 326 327 324 324 324 325 324 329 331 330 330 330 328 328 329 330
295 294 293 295 296 295 295 295 295 295 295 295 295 297 297 298 298 298 301 302 301 302 303 304 306 309 308 308 308 307 307 309 310 312 315 317 318 319 322 325 324 321 323 324 327 328 328 329 325 327 327 329 328 328
293 293 293 293 294 295 295 295 294 295 296 295 295 295 297 297 297 298 298 299 299 301 302 305 307 309 310 309 309 308 309 309 311 311 313 317 315 319 322 323 323 324 325 323 324 324 325 324 327 328 328 327 327 326
294 294 293 292 293 294 294 294 294 295 295 296 295 295 296 297 298 299 300 301 301 300 301 305 308 310 310 309 309 310 311 312 311 311 311 312 318 320 322 322 321 321 322 323 323 321 321 320 327 327 326 326 325 325
294 294 294 293 292 293 294 294 294 295 295 295 296 296 297 299 299 300 301 301 301 301 301 303 305 308 308 310 310 311 311 312 313 312 312 311 312 313 317 319 318 321 323 323 326 324 324 327 327 326 325 325 324 324
294 294 294 294 293 292 294 294 294 295 295 296 298 297 300 301 300 299 300 302 302 304 303 304 304 305 309 311 311 311 312 311 312 313 312 313 312 313 317 320 318 319 319 320 320 326 325 326 327 326 325 325 324 324
294 295 294 294 294 292 293 294 295 295 296 298 298 299 299 300 300 301 301 304 304 304 305 305 305 306 308 309 311 310 312 312 312 313 312 312 313 315 316 318 319 318 318 318 319 320 325 326 326 325 325 325 324 324
294 294 295 294 294 293 294 295 296 296 296 297 298 298 298 301 301 302 304 305 306 306 306 306 306 307 309 309 310 311 312 312 313 313 312 311 314 318 317 314 318 318 318 317 317 318 318 319 324 325 324 324 324 323
294 294 295 295 294 293 294 296 296 296 297 297 299 302 303 303 303 305 306 307 306 307 307 307 308 308 309 309 310 311 312 312 312 312 312 316 317 317 316 316 315 315 315 315 314 314 315 317 317 321 322 323 323 323
294 295 294 293 293 294 295 296 296 297 298 299 300 302 303 303 304 304 304 303 306 306 307 308 308 308 309 309 310 310 311 312 311 311 314 314 315 314 314 314 314 314 315 314 314 313 311 312 315 316 320 323 321 322
295 295 294 293 294 295 295 296 296 297 298 300 302 303 303 304 305 305 303 303 304 307 307 307 308 309 309 310 310 311 311 312 313 314 313 312 312 312 313 313 314 314 314 314 315 315 312 312 313 312 314 320 319 319
295 297 295 294 295 296 296 297 298 298 300 301 303 303 304 304 305 304 305 305 306 307 309 308 309 308 310 311 310 311 311 312 309 312 312 310 310 311 311 312 312 312 313 314 316 319 319 319 314 314 314 314 320 321
296 296 294 295 296 296 296 297 299 301 302 302 303 304 303 305 305 305 305 305 306 307 308 309 308 310 310 310 311 309 309 310 310 310 310 309 309 310 310 310 312 312 313 313 313 314 318 319 319 318 319 317 316 319
295 294 295 296 297 298 300 300 300 302 303 303 303 304 304 305 305 306 306 306 306 307 307 308 309 311 310 310 306 308 310 310 311 311 310 309 309 309 309 309 310 311 313 314 315 314 315 317 316 316 316 318 319 318
295 295 296 296 296 299 301 302 302 301 301 302 305 305 305 306 307 307 308 307 307 307 307 308 309 309 309 308 308 308 309 309 310 309 310 309 309 307 309 310 310 309 309 310 313 313 314 316 317 314 316 318 317 318
297 297 298 298 299 300 302 303 303 303 304 304 305 305 306 306 307 307 307 308 308 308 309 307 308 308 307 307 307 307 307 309 309 309 309 309 309 309 310 308 308 309 309 310 311 310 314 316 316 317 317 317 317 316
298 299 300 301 301 303 303 303 303 304 303 305 306 305 307 307 306 307 307 307 307 305 305 305 305 306 306 306 305 305 305 305 307 307 306 308 308 309 309 309 309 309 309 308 311 312 313 315 314 315 316 316 316 314
300 301 302 302 302 301 301 303 303 305 306 306 306 307 307 307 306 305 306 306 304 302 302 302 301 301 301 302 302 302 302 302 302 305 307 307 307 308 308 308 309 309 309 309 309 311 311 311 313 314 314 314 314 312
299 301 301 301 302 301 303 303 304 305 305 307 307 306 307 306 306 306 307 304 301 300 299 299 299 299 300 300 300 300 300 300 301 302 305 306 306 306 307 307 308 308 309 309 309 310 311 311 313 313 312 312 311 311
299 300 302 301 303 304 304 304 305 306 306 306 306 307 307 305 307 306 303 301 299 298 299 299 300 299 299 300 301 300 301 300 300 301 302 304 304 306 306 306 307 307 307 308 310 310 310 310 312 312 313 313 312 311
300 301 301 302 303 304 305 306 306 306 306 306 306 305 304 305 304 303 301 299 298 298 299 300 300 301 301 301 302 302 302 302 301 300 301 302 303 304 305 306 306 306 307 308 309 310 309 309 311 312 312 311 311 309
302 303 303 303 304 304 305 305 305 304 304 304 304 303 302 303 302 300 299 298 298 300 301 302 303 304 305 305 304 303 303 303 304 304 304 302 302 303 304 305 305 306 307 308 309 309 309 309 310 310 310 308 308 308
304 304 305 304 303 303 303 303 302 302 302 300 302 301 301 300 300 299 299 300 300 302 302 303 304 304 304 304 304 305 306 306 305 304 303 303 303 304 304 304 306 307 307 308 310 310 308 310 310 310 309 308 307 307
304 304 304 303 303 303 302 301 299 299 300 300 301 301 298 299 300 301 300 300 302 303 302 302 302 303 303 303 303 305 306 306 305 304 303 304 303 304 305 306 307 307 307 309 310 309 309 308 309 308 307 307 307 307
303 303 303 302 303 303 300 299 299 300 300 300 300 300 300 301 302 302 300 302 303 302 302 303 303 304 303 303 303 304 305 305 305 304 305 305 305 307 308 310 308 308 310 308 307 308 308 308 308 308 308 307 306 306
303 303 303 302 303 301 301 301 301 301 301 302 303 303 303 302 302 302 301 302 304 303 303 304 305 305 305 305 304 304 304 305 305 305 305 306 306 308 310 310 311 309 308 308 307 307 308 309 309 308 307 307 307 306
304 304 303 303 304 302 303 303 303 302 303 304 304 303 302 302 302 302 301 302 303 304 305 305 306 307 308 307 307 307 308 307 307 307 306 308 309 310 309 309 308 308 308 306 308 308 309 309 309 308 308 307 306 305
304 305 304 304 304 305 304 305 304 304 304 304 304 304 303 302 302 301 301 301 302 303 304 305 306 307 307 308 308 308 308 308 308 308 308 307 308 308 309 308 308 308 308 308 309 309 309 308 308 307 307 306 306 304
Wind_Speed
13 11 11 12 13 14 14 13 13 13 12 12 11 11 13 12 12 13 15 11 13 14 27 32 27 27 21 16 5 9 10 7 4 1 3 6 8 12 9 14 13 8 7 4 3 3 6 3 4 5 5 25 32 24
12 12 12 13 11 12 12 13 13 13 11 11 12 11 12 15 13 13 16 10 14 19 22 27 26 27 25 24 16 6 3 2 5 3 4 7 7 4 3 11 8 5 7 8 9 8 11 20 5 17 25 35 37 43
13 11 12 13 11 11 10 9 9 10 10 10 11 13 12 13 14 16 15 12 16 17 26 22 27 20 21 28 32 13 8 5 6 12 7 5 7 1 3 4 4 9 6 5 7 8 12 20 6 27 27 29 30 40
12 11 10 13 11 10 10 8 7 7 8 8 9 11 11 11 14 15 16 10 12 11 6 13 18 20 14 13 28 32 27 11 13 12 7 8 5 5 3 3 3 3 5 6 5 14 17 13 21 28 36 38 40 41
12 10 9 11 13 11 10 9 8 8 8 8 9 9 10 10 11 13 16 15 13 14 5 18 37 27 19 15 15 24 21 26 19 7 3 6 8 3 3 3 2 4 3 3 2 8 6 15 25 29 29 31 37 41
12 11 11 9 10 12 11 10 9 8 8 8 8 9 9 9 9 6 5 10 14 20 6 4 15 25 19 18 18 19 19 21 18 7 6 10 12 3 2 1 3 7 12 21 4 3 13 11 16 22 21 33 33 38
11 10 12 12 11 11 11 9 9 8 8 7 6 7 9 7 12 12 5 2 10 10 4 5 6 8 11 14 17 17 16 17 13 13 9 7 8 10 1 2 6 7 10 5 18 20 15 13 7 32 35 22 27 30
11 9 11 13 14 11 10 9 8 7 7 7 6 7 9 11 13 19 19 14 13 5 4 3 5 6 9 9 11 17 12 16 8 8 4 1 11 7 2 5 5 3 7 10 10 8 6 17 17 24 38 32 33 33
12 11 9 9 13 13 11 9 8 7 6 7 7 7 8 11 7 11 10 8 12 9 5 4 3 3 9 10 4 7 15 4 7 4 5 3 3 3 6 10 11 6 6 5 10 19 26 29 24 25 33 31 32 33
11 11 11 10 9 13 12 10 10 7 4 5 6 3 4 7 11 4 5 5 8 9 10 6 9 4 7 5 4 5 3 3 3 5 8 4 5 15 6 5 9 10 11 10 7 36 30 29 31 26 26 28 29 27
12 12 12 12 9 12 12 11 10 7 6 5 5 5 5 14 10 5 5 6 8 5 10 11 19 10 4 6 2 3 3 3 2 2 4 3 4 9 18 7 7 16 17 20 18 22 23 27 28 26 27 27 26 28
12 12 11 12 12 11 13 10 12 10 7 6 4 6 6 5 5 3 3 5 5 5 9 15 14 19 7 1 3 6 2 3 2 1 4 2 4 24 25 21 15 14 13 2 8 19 20 21 23 24 25 23 20 24
11 13 13 10 12 12 12 11 9 10 11 10 4 3 5 6 4 5 7 4 4 6 5 14 8 6 2 2 2 3 2 3 10 3 2 2 1 27 26 19 17 15 13 7 3 7 13 18 21 20 19 19 21 23
11 13 13 12 12 13 11 9 8 9 7 5 6 5 4 5 5 4 4 3 4 10 11 16 9 4 2 2 1 1 2 3 2 1 2 4 13 25 22 20 15 9 6 4 3 5 4 6 11 13 13 16 20 20
12 13 13 12 13 12 9 7 4 6 3 4 5 4 6 5 3 8 6 10 7 6 2 11 6 3 2 2 0 1 1 3 3 1 2 18 18 20 19 15 14 9 4 4 2 7 8 10 13 14 10 17 17 24
15 13 11 11 12 10 10 7 7 7 3 5 7 6 8 7 2 3 6 13 17 15 14 6 2 2 3 2 3 4 3 2 3 2 10 20 18 13 15 12 10 7 6 3 2 4 10 11 14 12 17 15 15 20
12 6 10 11 10 9 12 9 6 5 5 4 6 9 10 9 8 7 2 3 3 3 2 3 3 5 1 2 3 2 1 2 9 8 14 14 13 10 11 11 9 5 1 0 2 6 8 6 17 15 14 15 16 20
7 11 10 11 12 9 7 6 4 4 6 10 8 6 10 9 9 7 2 2 4 2 3 2 2 4 2 3 3 3 3 4 10 17 18 16 14 13 12 9 7 5 2 1 4 3 6 5 13 15 14 11 14 17
9 11 12 11 8 3 4 6 5 4 6 5 11 13 13 8 6 3 3 4 5 3 1 4 2 1 2 7 10 9 8 11 11 11 13 16 14 10 10 8 6 5 6 5 4 8 9 6 6 7 9 10 13 16
10 9 9 4 1 2 3 4 5 4 4 3 4 5 3 3 5 4 4 5 4 2 1 1 2 5 11 15 10 10 8 11 13 11 9 11 10 9 6 4 6 7 6 7 7 8 11 10 7 6 12 13 15 15
7 5 3 2 4 6 5 3 5 5 3 0 6 2 1 3 3 3 5 6 3 0 3 8 11 13 12 13 11 12 9 10 7 7 7 8 7 6 3 2 4 8 4 6 5 7 8 10 5 6 11 18 27 27
3 1 2 5 3 4 5 5 5 6 1 7 5 4 4 2 1 2 7 6 5 6 5 9 7 7 9 5 2 3 0 1 4 8 3 6 7 7 7 5 2 1 3 5 11 8 8 10 9 10 12 17 23 33
3 1 3 3 3 2 6 4 3 4 2 3 3 3 5 5 5 2 0 6 6 14 10 4 8 12 13 13 14 14 14 15 15 10 7 6 5 5 5 6 8 1 2 6 5 7 8 8 9 16 19 19 26 29
3 2 5 5 3 3 6 2 3 4 5 4 3 3 3 7 8 5 4 4 7 15 14 15 14 15 15 14 14 14 13 14 18 20 18 14 11 10 9 5 6 6 4 5 7 8 9 10 12 15 17 19 22 25
2 4 4 3 2 4 3 4 4 3 3 5 4 4 4 9 3 3 3 7 19 21 19 17 16 14 14 14 14 13 12 15 16 18 22 23 19 15 12 10 11 9 4 1 9 8 11 12 13 14 20 25 32 31
3 4 3 6 5 4 5 6 7 5 4 4 6 6 7 3 3 3 4 15 19 21 21 20 17 15 13 12 12 10 9 12 16 19 18 21 22 22 17 12 15 15 7 3 12 10 9 11 13 14 21 26 30 32
1 1 2 2 2 1 3 4 3 6 5 6 4 5 4 4 5 4 16 17 19 19 15 9 8 8 6 5 3 4 8 10 9 10 11 18 22 22 24 16 15 16 5 7 10 9 7 14 18 16 21 25 26 25
3 5 3 6 8 10 9 5 5 5 4 9 5 6 3 4 2 9 13 27 25 18 12 7 4 6 5 4 3 6 7 10 12 12 10 14 16 20 21 19 15 9 11 10 11 10 10 16 20 20 21 24 21 20
2 1 5 12 10 8 9 6 5 7 9 7 3 3 4 6 15 17 24 30 27 18 13 7 8 5 5 5 7 11 14 17 20 19 20 20 21 23 25 18 11 15 16 12 11 13 12 15 20 29 31 28 18 21
16 15 13 13 6 5 8 7 9 14 16 15 11 10 11 15 23 23 28 33 32 27 24 21 18 11 10 12 14 15 13 13 14 16 25 26 26 23 19 17 18 18 18 20 17 26 34 36 32 23 15 27 32 23
14 16 15 9 5 9 13 11 15 14 12 9 9 7 10 11 23 33 33 34 36 34 34 32 28 21 20 19 18 18 17 16 17 23 26 26 21 20 20 22 23 21 23 23 39 37 30 23 18 26 26 21 19 17
8 13 13 6 6 8 5 4 6 5 7 9 11 14 17 13 14 23 33 35 37 37 37 38 34 31 25 27 26 23 22 22 23 24 23 22 21 19 17 16 23 26 26 38 30 33 23 20 18 20 21 24 22 19
12 13 14 10 5 3 4 5 3 0 6 13 18 14 13 11 12 23 23 29 29 33 36 36 36 37 32 24 22 24 22 20 18 17 16 16 15 16 21 29 30 37 41 31 26 20 19 26 27 26 25 21 19 20
Wind_Direction
229 242 236 229 237 241 236 238 242 248 249 253 251 254 235 234 235 245 248 229 255 265 275 274 275 288 302 284 271 320 334 13 313 17 246 226 264 230 244 225 206 171 158 183 136 63 266 182 70 150 189 132 107 105
232 233 231 233 235 231 236 241 245 241 244 251 248 249 243 239 243 244 257 228 275 252 268 273 271 264 259 263 272 260 255 122 347 22 349 335 280 312 242 233 227 166 180 176 184 200 276 286 242 146 131 128 128 133
228 228 234 224 227 229 235 244 243 241 240 249 250 242 249 241 240 239 253 250 280 297 299 273 272 286 280 251 239 226 254 227 264 301 313 285 262 354 273 33 307 6 113 165 140 178 164 220 239 160 170 147 144 137
214 220 224 218 220 227 228 233 236 229 228 247 251 245 248 241 239 242 244 235 267 272 273 290 296 287 256 255 229 237 243 230 281 277 295 251 329 8 16 265 294 14 306 318 106 147 149 180 150 123 127 133 133 137
215 220 221 220 219 225 221 229 232 236 242 256 255 244 243 241 241 245 248 248 238 250 298 295 304 286 261 232 250 225 234 228 235 223 216 294 285 241 152 214 347 341 8 35 312 0 286 164 146 139 137 144 144 143
219 219 213 214 211 217 220 226 229 237 249 257 251 241 238 242 241 229 284 250 232 252 267 298 291 291 261 257 221 206 220 220 224 221 192 257 237 14 272 269 161 122 84 36 277 344 88 114 149 163 156 138 142 139
211 215 217 213 210 217 219 223 227 241 241 250 248 244 233 233 222 205 226 239 194 219 252 274 268 289 231 212 213 200 218 228 238 246 210 246 338 323 241 278 164 180 126 216 72 81 57 30 58 113 108 99 116 127
209 218 222 218 216 216 219 222 227 230 238 239 251 245 238 238 246 248 242 263 273 240 247 269 271 267 242 184 210 206 205 219 240 237 285 73 351 322 320 348 140 90 137 199 149 137 58 39 150 150 137 138 127 125
221 221 217 218 218 217 220 225 220 222 243 243 253 270 255 246 241 248 229 238 242 220 289 258 287 310 317 235 224 203 210 193 228 197 204 225 107 292 17 35 59 31 118 105 175 174 162 152 158 123 128 131 131 131
222 221 219 217 217 213 216 216 214 217 252 234 272 255 239 216 210 177 200 206 200 211 221 247 266 271 308 273 121 230 248 222 227 205 194 188 208 217 277 7 61 96 91 75 166 190 202 144 133 137 136 143 140 141
217 217 217 214 213 208 207 209 206 208 222 229 218 230 247 160 179 204 212 208 199 226 216 234 227 251 266 276 189 298 247 243 215 239 161 199 199 200 177 166 103 88 82 72 340 165 144 135 121 123 133 139 143 148
218 213 212 209 205 205 199 203 204 214 213 202 271 279 187 191 205 202 215 217 212 232 223 198 206 209 210 148 87 324 267 337 245 330 171 244 203 181 187 172 150 135 133 82 42 85 134 139 143 137 140 143 148 156
208 203 201 198 199 197 198 205 216 238 233 227 235 243 188 184 204 214 202 201 215 225 222 178 202 125 133 166 178 217 251 249 319 335 205 260 172 173 179 180 159 151 160 158 112 82 106 106 129 130 134 152 157 156
195 190 191 191 195 189 194 206 235 209 179 222 205 218 234 195 226 215 276 328 283 311 185 153 141 115 138 210 213 299 341 300 276 226 251 68 69 145 134 131 122 120 135 151 192 173 166 157 144 122 157 158 163 171
172 172 173 183 181 180 191 202 196 174 232 233 232 241 223 264 290 281 281 300 248 256 345 93 92 105 150 218 265 12 242 272 270 287 63 78 81 103 109 113 104 109 124 140 194 228 209 187 198 179 157 168 168 168
157 158 174 176 176 183 178 177 187 202 244 233 235 263 290 299 326 96 273 233 250 156 131 96 143 105 218 182 170 203 242 191 354 5 67 100 90 88 96 95 104 109 123 137 11 117 166 173 185 205 187 185 174 182
139 160 174 170 171 183 169 173 197 221 237 239 243 254 278 285 275 285 262 227 265 177 97 115 189 196 186 185 204 57 355 122 116 113 104 108 106 101 92 91 82 97 175 291 129 116 112 96 188 180 183 185 182 180
167 146 161 159 146 147 185 214 249 243 245 240 256 282 298 271 280 268 236 194 156 194 176 209 221 207 213 173 107 173 116 163 133 121 116 108 99 97 95 107 104 114 58 223 249 221 112 115 133 138 148 168 189 178
132 146 148 155 154 198 215 219 223 264 262 315 288 282 269 258 233 225 160 162 160 184 266 285 246 58 71 75 133 215 158 147 126 119 127 119 110 102 103 106 101 100 71 66 134 144 155 133 138 150 171 175 160 173
121 114 121 125 209 281 255 223 204 272 290 262 270 307 277 214 189 192 185 185 178 165 286 309 61 86 108 102 119 158 136 151 138 131 134 140 129 148 119 42 136 107 93 77 88 142 142 135 147 143 160 158 174 167
124 112 112 335 288 248 267 263 226 244 255 124 252 272 167 150 155 156 167 169 184 311 72 34 99 106 99 98 84 105 122 116 89 162 151 170 172 168 172 100 79 71 78 70 109 100 126 134 130 137 134 150 138 136
105 57 259 263 266 238 257 261 252 296 77 280 343 28 15 347 309 218 169 148 65 41 70 47 35 59 74 78 140 187 349 289 113 107 118 165 141 171 187 182 151 78 76 67 84 111 123 147 153 140 148 142 143 142
40 294 250 242 258 284 271 319 3 297 278 254 184 183 175 188 180 329 183 82 93 34 32 350 319 307 293 281 269 261 267 273 257 220 187 186 168 176 165 179 187 180 76 126 125 110 104 114 135 150 133 144 149 140
7 322 344 332 325 281 308 262 286 308 318 310 339 67 43 15 342 11 48 65 6 340 332 329 323 313 302 293 284 273 258 239 230 220 201 197 202 200 193 167 171 191 118 28 189 145 135 133 133 159 167 153 147 150
3 359 329 312 337 318 340 351 342 12 20 6 21 44 31 8 25 50 37 343 335 338 333 330 323 309 295 287 281 270 247 226 220 221 208 203 197 190 192 203 187 181 182 31 172 162 141 142 149 164 171 169 165 164
34 34 27 5 352 342 352 357 354 350 358 34 36 16 15 34 48 27 331 320 325 335 339 336 325 309 295 282 274 261 235 218 215 215 212 199 199 197 184 190 199 193 172 228 192 179 153 151 154 165 174 175 174 168
30 309 9 304 320 347 255 233 30 31 35 18 7 13 8 29 13 319 313 344 345 358 357 353 342 324 334 336 271 210 184 192 202 204 198 192 193 200 194 189 197 177 178 175 190 199 179 164 154 161 170 169 168 168
356 4 9 61 67 41 32 56 34 24 8 342 335 29 38 359 288 302 332 4 4 8 10 9 341 300 279 293 277 178 166 182 139 135 139 157 179 186 185 183 162 171 206 194 190 188 178 170 164 160 162 162 160 149
84 293 71 72 72 57 38 43 36 23 16 13 25 15 337 334 353 352 7 11 23 40 31 43 50 25 69 76 135 154 161 160 158 154 156 158 163 169 166 168 167 171 178 178 175 162 168 175 159 141 136 138 148 159
69 70 75 62 54 52 41 84 75 70 80 63 50 28 12 14 20 30 25 38 42 41 42 54 69 89 87 98 118 132 144 160 178 167 156 153 154 144 140 149 160 163 158 147 134 131 130 134 140 141 150 143 147 154
87 82 80 80 74 90 101 90 64 64 59 41 33 5 16 25 29 33 27 44 47 53 50 48 59 88 89 96 113 124 125 125 129 140 137 137 141 139 146 147 150 147 141 137 139 132 137 139 127 138 149 155 152 138
102 96 99 99 104 125 99 60 58 53 34 24 24 58 48 37 27 24 22 31 44 46 49 54 64 75 89 80 90 108 117 121 127 137 147 144 145 144 140 144 147 144 142 149 140 144 138 135 146 155 139 144 150 144
97 108 112 107 113 117 146 128 127 219 46 42 42 54 49 42 39 19 28 31 33 41 48 56 67 82 74 88 88 87 99 107 119 131 133 141 150 153 144 135 138 142 147 147 139 128 112 124 132 134 138 141 140 143